Regional Weather Roundup
Issued by NWS

Home | Current Version | Previous Version | Graphics & Text | Print | Product List | Glossary On
Versions: 1 2 3 4 5 6 7 8 9 10 11 12 13 14 15 16 17 18 19 20 21 22 23 24 25 26 27 28 29 30 31 32 33 34 35 36 37 38 39 40 41 42 43 44 45 46 47 48 49 50
100
ASUS45 KBOI 161110
RWRID

IDAHO REGIONAL WEATHER ROUNDUP
NATIONAL WEATHER SERVICE BOISE ID
500 AM MDT WED AUG 16 2017

NOTE: "FAIR" INDICATES FEW OR NO CLOUDS BELOW 12000 FEET
WITH NO SIGNIFICANT WEATHER AND/OR OBSTRUCTIONS TO VISIBILITY

IDZ012-014-161200-
SOUTHWEST IDAHO


CITY           SKY/WX    TMP DP  RH WIND       PRES   REMARKS
BOISE          CLEAR     61  41  47 S5        29.95R
CALDWELL       CLEAR     59  42  53 SW7       29.94R
MOUNTAIN HOME  CLEAR     57  39  51 NW6       29.95R
$$

IDZ016-017-161200-
SOUTHCENTRAL IDAHO


CITY           SKY/WX    TMP DP  RH WIND       PRES   REMARKS
BURLEY         CLEAR     49  43  80 CALM      30.00R
JEROME         CLEAR     55  39  54 E7        30.00R
TWIN FALLS     CLEAR     58  36  43 S13       30.00R
$$

IDZ019>023-161200-
SOUTHEAST IDAHO


CITY           SKY/WX    TMP DP  RH WIND       PRES   REMARKS
IDAHO FALLS    CLEAR     45  43  93 N5        30.06R
POCATELLO      CLEAR     44  39  82 NE6       30.04S
REXBURG        CLEAR     47  42  83 NE3       30.07R
$$

IDZ006-010-011-018-031-032-161200-
CENTRAL IDAHO MOUNTAINS


CITY           SKY/WX    TMP DP  RH WIND       PRES   REMARKS
MCCALL         CLEAR     45  36  70 CALM      30.06R
HAILEY         CLEAR     50  41  71 NW9G17    30.10R
STANLEY          N/A     35  28  75 S3        30.17R
SALMON         CLOUDY    49  39  68 CALM      30.04R
CHALLIS        CLEAR     49  39  68 CALM      30.07R
$$

IDZ002-004-006-007-026-161200-
NORTHERN IDAHO


CITY           SKY/WX    TMP DP  RH WIND       PRES   REMARKS
LEWISTON       CLEAR     60  37  42 SE5       29.96R
LOWELL           N/A     52  44  74 NW3       30.02R
COEUR D`ALENE  CLEAR     56  46  69 S5        29.98R
MULLAN PASS    CLEAR     51  27  39 N3        30.11R
$$




USA.gov is the U.S. government's official web portal to all federal, state and local government web resources and services.